Weather History for Gainesville, TX

Change the Weather History Date:

Friday, March 15, 2013

  Actual Average (KDTO) Record (KDTO)
Temperature  
Mean Temperature 60 °F -  
Max Temperature 77 °F 62 °F 81 °F (2013)
Min Temperature 44 °F 42 °F 25 °F (1999)
Degree Days  
Heating Degree Days 4    
Growing Degree Days 10 (Base 50)    
Moisture  
Dew Point 45 °F    
Average Humidity 59    
Maximum Humidity 93    
Minimum Humidity 28    
Precipitation  
Precipitation 0.00 in - - ()
Sea Level Pressure  
Sea Level Pressure 30.03 in    
Wind  
Wind Speed 9 mph (SSE)    
Max Wind Speed 21 mph    
Max Gust Speed 26 mph    
Visibility 10 miles    
Events      
Averages and records for this station are not official NWS values.
T = Trace of Precipitation, MM = Missing Value Source: NWS Daily Summary

Daily Weather History Graph

Daily Weather History Graph

Search for Another Location

Airport:

Trip Planner

Search our weather history database for the weather conditions in past years. The results will help you decide how hot, cold, wet, or windy it might be!

Date:

Astronomy

Mar. 15, 2013 Rise Set
Actual Time 7:38 AM CDT 7:36 PM CDT
Civil Twilight 7:14 AM CDT 8:01 PM CDT
Nautical Twilight 6:45 AM CDT 8:30 PM CDT
Astronomical Twilight 6:16 AM CDT 8:59 PM CDT
Moon 9:42 AM CDT (3/15) 11:38 PM CDT (3/15)
Length of Visible Light 12h 47m
Length of Day
11h 58m
Waxing Crescent, 15% of the Moon is Illuminated
Mar 15
Waxing Crescent
Mar 19
First Quarter
Mar 27
Full
Apr 2
Last Quarter
Apr 10
New

Hourly Weather History & Observations

Time (CDT) Temp. Windchill Dew Point Humidity Pressure Visibility Wind Dir Wind Speed Gust Speed Precip Events Conditions
12:15 AM 53.6 °F - 42.8 °F 67% 30.18 in 10.0 mi SE 3.5 mph - N/A   Clear
12:35 AM 51.8 °F - 42.8 °F 71% 30.18 in 10.0 mi SSE 4.6 mph - N/A   Clear
12:55 AM 51.8 °F - 42.8 °F 71% 30.17 in 10.0 mi SSE 4.6 mph - N/A   Clear
1:15 AM 51.8 °F - 44.6 °F 76% 30.17 in 10.0 mi SSE 4.6 mph - N/A   Clear
1:35 AM 51.8 °F - 42.8 °F 71% 30.17 in 10.0 mi South 3.5 mph - N/A   Clear
1:55 AM 51.8 °F - 44.6 °F 76% 30.17 in 10.0 mi South 4.6 mph - N/A   Clear
2:15 AM 51.8 °F - 44.6 °F 76% 30.16 in 10.0 mi South 4.6 mph - N/A   Clear
2:35 AM 50.0 °F - 42.8 °F 76% 30.15 in 10.0 mi South 5.8 mph - N/A   Clear
2:55 AM 50.0 °F - 42.8 °F 76% 30.15 in 10.0 mi SSE 5.8 mph - N/A   Clear
3:15 AM 50.0 °F - 42.8 °F 76% 30.15 in 10.0 mi SE 5.8 mph - N/A   Clear
3:35 AM 50.0 °F - 42.8 °F 76% 30.14 in 10.0 mi SE 4.6 mph - N/A   Clear
3:55 AM 50.0 °F - 42.8 °F 76% 30.14 in 10.0 mi SSE 8.1 mph - N/A   Clear
4:15 AM 50.0 °F - 44.6 °F 82% 30.12 in 10.0 mi SSE 8.1 mph - N/A   Clear
4:35 AM 50.0 °F - 44.6 °F 82% 30.12 in 10.0 mi SSE 4.6 mph - N/A   Clear
4:55 AM 50.0 °F - 44.6 °F 82% 30.12 in 10.0 mi SSE 6.9 mph - N/A   Clear
5:15 AM 48.2 °F - 42.8 °F 82% 30.12 in 10.0 mi SSE 5.8 mph - N/A   Clear
5:35 AM 46.4 °F 44.3 °F 42.8 °F 87% 30.12 in 10.0 mi SE 4.6 mph - N/A   Clear
5:55 AM 46.4 °F 43.5 °F 42.8 °F 87% 30.11 in 10.0 mi SSE 5.8 mph - N/A   Clear
6:15 AM 46.4 °F 44.3 °F 42.8 °F 87% 30.12 in 10.0 mi SSE 4.6 mph - N/A   Clear
6:35 AM 46.4 °F 43.5 °F 42.8 °F 87% 30.12 in 10.0 mi SSE 5.8 mph - N/A   Clear
6:55 AM 46.4 °F 43.5 °F 44.6 °F 93% 30.13 in 10.0 mi SSE 5.8 mph - N/A   Clear
7:15 AM 46.4 °F 43.5 °F 42.8 °F 87% 30.12 in 10.0 mi SSE 5.8 mph - N/A   Clear
7:35 AM 44.6 °F 40.7 °F 42.8 °F 93% 30.12 in 10.0 mi SSE 6.9 mph - N/A   Clear
7:55 AM 44.6 °F 40.7 °F 42.8 °F 93% 30.12 in 10.0 mi SSE 6.9 mph - N/A   Clear
8:15 AM 50.0 °F - 46.4 °F 87% 30.12 in 10.0 mi SSE 9.2 mph - N/A   Clear
8:35 AM 50.0 °F - 46.4 °F 87% 30.12 in 10.0 mi South 10.4 mph - N/A   Clear
8:55 AM 51.8 °F - 48.2 °F 88% 30.11 in 10.0 mi SSE 10.4 mph - N/A   Clear
9:15 AM 55.4 °F - 50.0 °F 82% 30.12 in 10.0 mi SSE 11.5 mph - N/A   Clear
9:35 AM 55.4 °F - 50.0 °F 82% 30.11 in 10.0 mi South 11.5 mph - N/A   Clear
9:55 AM 57.2 °F - 50.0 °F 77% 30.11 in 10.0 mi South 13.8 mph - N/A   Clear
10:55 AM 64.4 °F - 51.8 °F 64% 30.11 in 10.0 mi SSW 15.0 mph - N/A   Clear
11:15 AM 64.4 °F - 50.0 °F 59% 30.10 in 10.0 mi SSW 12.7 mph - N/A   Clear
11:35 AM 66.2 °F - 51.8 °F 60% 30.10 in 10.0 mi SSW 15.0 mph - N/A   Clear
11:55 AM 69.8 °F - 51.8 °F 53% 30.09 in 10.0 mi SSW 16.1 mph 19.6 mph N/A   Clear
12:15 PM 69.8 °F - 50.0 °F 49% 30.08 in 10.0 mi South 16.1 mph 20.7 mph N/A   Clear
12:35 PM 71.6 °F - 51.8 °F 50% 30.08 in 10.0 mi South 16.1 mph 20.7 mph N/A   Clear
12:55 PM 71.6 °F - 50.0 °F 46% 30.07 in 10.0 mi SSW 15.0 mph - N/A   Clear
1:15 PM 73.4 °F - 50.0 °F 44% 30.06 in 10.0 mi South 16.1 mph 23.0 mph N/A   Clear
1:35 PM 75.2 °F - 50.0 °F 41% 30.04 in 10.0 mi South 17.3 mph - N/A   Clear
1:55 PM 75.2 °F - 50.0 °F 41% 30.03 in 10.0 mi South 17.3 mph 25.3 mph N/A   Clear
2:15 PM 75.2 °F - 50.0 °F 41% 30.01 in 10.0 mi South 17.3 mph 24.2 mph N/A   Clear
2:35 PM 77.0 °F - 50.0 °F 39% 29.99 in 10.0 mi SSE 17.3 mph 26.5 mph N/A   Clear
2:55 PM 77.0 °F - 50.0 °F 39% 29.98 in 10.0 mi South 18.4 mph 21.9 mph N/A   Clear
3:15 PM 77.0 °F - 46.4 °F 34% 29.98 in 10.0 mi South 15.0 mph 25.3 mph N/A   Clear
3:35 PM 77.0 °F - 46.4 °F 34% 29.96 in 10.0 mi South 20.7 mph 26.5 mph N/A   Clear
3:55 PM 77.0 °F - 44.6 °F 32% 29.96 in 10.0 mi South 19.6 mph 26.5 mph N/A   Clear
4:15 PM 77.0 °F - 44.6 °F 32% 29.95 in 10.0 mi South 18.4 mph 26.5 mph N/A   Clear
4:35 PM 77.0 °F - 42.8 °F 29% 29.94 in 10.0 mi South 20.7 mph 25.3 mph N/A   Clear
4:55 PM 77.0 °F - 42.8 °F 29% 29.93 in 10.0 mi South 15.0 mph 25.3 mph N/A   Clear
5:15 PM 77.0 °F - 42.8 °F 29% 29.92 in 10.0 mi South 16.1 mph 23.0 mph N/A   Clear
5:35 PM 77.0 °F - 41.0 °F 28% 29.92 in 10.0 mi South 17.3 mph 26.5 mph N/A   Clear
5:55 PM 77.0 °F - 41.0 °F 28% 29.91 in 10.0 mi South 17.3 mph 26.5 mph N/A   Clear
6:15 PM 77.0 °F - 41.0 °F 28% 29.91 in 10.0 mi South 15.0 mph - N/A   Clear
6:35 PM 75.2 °F - 41.0 °F 29% 29.90 in 10.0 mi South 13.8 mph 23.0 mph N/A   Clear
6:55 PM 71.6 °F - 41.0 °F 33% 29.90 in 10.0 mi South 15.0 mph - N/A   Clear
7:15 PM 71.6 °F - 42.8 °F 35% 29.90 in 10.0 mi SSE 12.7 mph - N/A   Clear
7:35 PM 69.8 °F - 42.8 °F 38% 29.90 in 10.0 mi SSE 10.4 mph - N/A   Clear
7:55 PM 69.8 °F - 44.6 °F 40% 29.90 in 10.0 mi South 11.5 mph - N/A   Clear
8:15 PM 68.0 °F - 42.8 °F 40% 29.90 in 10.0 mi SSE 10.4 mph - N/A   Clear
8:35 PM 64.4 °F - 41.0 °F 42% 29.90 in 10.0 mi South 10.4 mph - N/A   Clear
8:55 PM 64.4 °F - 44.6 °F 49% 29.90 in 10.0 mi SSE 8.1 mph - N/A   Clear
9:15 PM 64.4 °F - 46.4 °F 52% 29.90 in 10.0 mi SSE 9.2 mph - N/A   Clear
9:35 PM 62.6 °F - 44.6 °F 52% 29.90 in 10.0 mi SSE 9.2 mph - N/A   Clear
9:55 PM 62.6 °F - 46.4 °F 55% 29.89 in 10.0 mi SSE 9.2 mph - N/A   Clear
10:15 PM 64.4 °F - 44.6 °F 49% 29.89 in 10.0 mi SSE 11.5 mph - N/A   Clear
10:35 PM 64.4 °F - 42.8 °F 45% 29.88 in 10.0 mi SSE 12.7 mph 18.4 mph N/A   Clear
10:55 PM 64.4 °F - 42.8 °F 45% 29.88 in 10.0 mi SSE 12.7 mph - N/A   Clear
11:15 PM 64.4 °F - 42.8 °F 45% 29.88 in 10.0 mi SSE 12.7 mph - N/A   Clear
11:35 PM 64.4 °F - 42.8 °F 45% 29.88 in 10.0 mi SSE 10.4 mph - N/A   Clear
11:55 PM 62.6 °F - 42.8 °F 48% 29.88 in 10.0 mi SSE 9.2 mph - N/A   Clear